Tracking 29493 objects as of 9-Sep-2024
HD Live streaming from Space Station
objects crossing your sky now

FENGYUN 1C DEB

Track FENGYUN 1C DEB now!
10-day predictions


NORAD ID: 35121
Int'l Code: 1999-025DKZ
Perigee: 771.5 km
Apogee: 1,001.6 km
Inclination: 98.4 °
Period: 102.6 minutes
Semi major axis: 7257 km
RCS: 0.0043 m2 (small)
Launch date: May 10, 1999
Source: People's Republic of China (PRC)
Launch site: Taiyaun Space Center, China (TSC)

Note: This is SATELLITE DEBRIS
Your satellite tracking list
Your tracking list is empty




NASA's NSSDC Master Catalog

Two Line Element Set (TLE):
1 35121U 99025DKZ 24246.96776641  .00001263  00000-0  73444-3 0  9998
2 35121  98.3596 142.0058 0158550 339.8837  19.6128 14.04167163545531
Source of the keplerian elements: AFSPC